Current Version              Previous Version:    01  02  03  04  05  06  07  08  09  10  11  12  13  14  15  16  17  18  19  20  21  22  23  24  25  26  27  28  29  30  
   31  32  33  34  35  36  37  38  39  40  41  42  43  44  45  46  47  48  49  50  51  52  53  54  55  56  57  58  59  60  

[Printable]
281
ASUS44 KFWD 231610
RWRTX
NORTH TEXAS HOURLY WEATHER ROUNDUP
NATIONAL WEATHER SERVICE FORT WORTH TX
1100 AM CDT THU OCT 23 2014

NOTE: "FAIR" INDICATES FEW OR NO CLOUDS BELOW 12,000 FEET WITH NO
SIGNIFICANT WEATHER AND/OR OBSTRUCTIONS TO VISIBILITY.

TXZ118-119-231700-
DALLAS/FORT WORTH METROPLEX

CITY           SKY/WX    TMP DP  RH WIND       PRES   REMARKS
DFW AIRPORT    PTSUNNY   67  55  65 S9        30.17R
DALLAS LOVE    PTSUNNY   68  55  63 S12       30.17S
FTW MEACHAM    CLOUDY    69  55  60 SE8       30.16S
DAL-EXECUTIVE  CLOUDY    68  54  60 SE6       30.17S
FTW-ALLIANCE   PTSUNNY   69  54  58 S8        30.17R
FTW-NAS-JRB    CLOUDY    74  54  49 SE9       30.21R
FTW-SPINKS     CLOUDY    66  55  68 SE6       30.19R
ARLINGTON      CLOUDY    66  54  65 SE6       30.18R
MESQUITE       PTSUNNY   66  54  63 S8        30.19R
LANCASTER      CLOUDY    66  53  63 S3        30.19S
$$

TXZ091>094-102>105-117-120-121-131>134-231700-
NORTH CENTRAL TEXAS

CITY           SKY/WX    TMP DP  RH WIND       PRES   REMARKS
SHRMAN/DENISON PTSUNNY   64  59  86 SE8       30.18S
GAINESVILLE    MOSUNNY   68  56  67 S12       30.18S
BOWIE          SUNNY     71  56  58 S12G17    30.16R
BRIDGEPORT     PTSUNNY   73  58  60 S8        30.17S
DECATUR        SUNNY     70  54  55 S12       30.16S
DENTON         CLOUDY    68  56  65 S10       30.17R
MCKINNEY       CLOUDY    65  55  70 S6        30.17S
GREENVILLE     CLOUDY    64  52  63 SE3       30.19S
ROCKWALL       CLOUDY    65  55  68 S5        30.17S
TERRELL        CLOUDY    67  53  61 S8        30.18R
WAXAHACHIE     CLOUDY    65  56  74 SE6       30.19S
CLEBURNE       MOSUNNY   66  57  72 SE7       30.19R
GRANBURY       CLOUDY    71  58  64 SE6       30.18R
$$

TXZ083>090-098>101-113>116-127>130-139>142-154-155-231700-
WESTERN NORTH TEXAS

CITY           SKY/WX    TMP DP  RH WIND       PRES   REMARKS
WICHITA FALLS  MOSUNNY   71  58  63 S8        30.13S
WF-KICKAPOO    PTSUNNY   72  57  58 SW6       30.15S
VERNON         SUNNY     70  63  78 S5        30.14S
ABILENE        PTSUNNY   73  57  57 SW12      30.16S
ABILENE-DYESS  SUNNY     74  58  57 S12       30.15S
BRECKENRIDGE   CLOUDY    73  58  60 S6        30.15S HAZE
GRAHAM         CLOUDY    70  60  70 S5        30.14R
MINERAL WELLS  SUNNY     72  58  61 S10       30.14S
STEPHENVILLE   CLOUDY    69  58  68 S5        30.20R
COMANCHE       CLOUDY    74  62  66 SE5       30.17S
BROWNWOOD      CLOUDY    72  59  64 S6        30.17S
COLEMAN        SUNNY     72  60  64 S5        30.18R
BRADY          MOSUNNY   73  59  60 E5        30.17S
$$

TXZ143>147-156>162-174-175-231700-
CENTRAL TEXAS

CITY           SKY/WX    TMP DP  RH WIND       PRES   REMARKS
WACO           CLOUDY    71  57  61 VRB6      30.17R
WACO-TSTC      MOSUNNY   72  57  60 S5        30.18R
WACO-MCGREGOR  PTSUNNY   72  57  60 S5        30.18R
HILLSBORO      PTSUNNY   67  55  67 SE6       30.18S
CORSICANA      CLOUDY    67  52  58 SE5       30.19R
MEXIA          MOSUNNY   65  55  69 SE5       30.17R
HEARNE         MOSUNNY   68  54  60 SE5       30.18R
CAMERON        PTSUNNY   71  57  61 S3        30.16S
TEMPLE         MOSUNNY   72  55  56 SE6       30.15S
KILLEEN        NOT AVBL
KILLEEN-SKYLRK MOSUNNY   72  57  60 S5        30.16R
FORT HOOD      MOSUNNY   75  62  64 SE5       30.16R
GATESVILLE     MOSUNNY   72  61  68 CALM      30.18S
HAMILTON       CLOUDY    71  59  65 S7        30.18S
LAMPASAS       CLOUDY    73  64  72 CALM      30.16R
$$

TXZ095>097-106>112-122>126-135>138-148>153-164>167-231700-
EAST TEXAS

CITY           SKY/WX    TMP DP  RH WIND       PRES   REMARKS
PARIS          PTSUNNY   63  46  55 SE5       30.20S
SULPHUR SPRNGS PTSUNNY   67  50  55 S3        30.21R
MOUNT PLEASANT PTSUNNY   62  50  65 CALM      30.20S
MINEOLA        MOSUNNY   64  52  63 SE5       30.19S
TYLER          PTSUNNY   66  50  56 SE5       30.18R
LONGVIEW       CLOUDY    60  52  74 E3        30.18R
MARSHALL       CLOUDY    61  53  75 CALM      30.20R
ATHENS         MOSUNNY   64  52  63 SE5       30.17R
PALESTINE      CLOUDY    64  52  66 E5        30.19R
JACKSONVILLE   LGT RAIN  59  54  82 CALM      30.19S
HENDERSON      CLOUDY    62  51  68 CALM      30.20R
NACOGDOCHES    CLOUDY    63  52  67 CALM      30.18S
LUFKIN         CLOUDY    66  53  63 NE3       30.16F
$$

SUPPLEMENTAL OBSERVATIONS (CENTRAL)

CITY           SKY/WX    TMP DP  RH WIND       PRES   REMARKS
CADDO GRASSLND   N/A     66  54  63 S6          N/A
PAT MAYSE LAKE   N/A     63  52  67 E3          N/A
GREENVILLE       N/A     68  52  56 SE5         N/A
CEDAR HILL       N/A     66  54  63 SE3         N/A
MCGREGOR         N/A     73  57  56 S3          N/A
$$

SUPPLEMENTAL OBSERVATIONS (WEST)

CITY           SKY/WX    TMP DP  RH WIND       PRES   REMARKS
MILLERS CREEK    N/A     72  66  83 SW6         N/A
LBJ GRASSLAND    N/A     72  54  53 SE9         N/A
GRANBURY         N/A     70  57  64 SE7         N/A
HAMBY            N/A     73  57  56 S9          N/A
IVIE RESERVOIR   N/A     73  57  56 S3          N/A
COLORADO BEND    N/A    N/A N/A N/A S3          N/A
$$

SUPPLEMENTAL OBSERVATIONS (EAST)

CITY           SKY/WX    TMP DP  RH WIND       PRES   REMARKS
TEXARKANA        N/A     59  50  72 NE1         N/A
LINDEN           N/A     57  52  82 CALM        N/A
LUFKIN           N/A     64  54  68 MISG        N/A
N SABINE NF      N/A     63  54  72 MISG        N/A
$$

SUPPLEMENTAL OBSERVATIONS ARE A COLLECTION OF AUTOMATED INSTRUMENTS
THAT ARE MAINTAINED BY A VARIETY OF FEDERAL AND STATE AGENCIES.
CERTAIN ELEMENTS...SUCH AS HUMIDITY VALUES AND SUSTAINED WIND
SPEEDS...MAY BE APPROXIMATED.